TimePDT,TemperatureF,Dew PointF,Humidity,Sea Level PressureIn,VisibilityMPH,Wind Direction,Wind SpeedMPH,Gust SpeedMPH,PrecipitationIn,Events,Conditions,WindDirDegrees,DateUTC
12:55 AM,35.6,35.6,100,30.22,10.0,ENE,2.3,-,N/A,,Mostly Cloudy,70,2012-10-25 07:55:00
1:26 AM,35.6,35.6,100,30.24,10.0,SSE,3.5,-,N/A,,Light Drizzle,150,2012-10-25 08:26:00
1:39 AM,35.6,35.6,100,30.24,10.0,South,3.5,-,N/A,,Light Drizzle,190,2012-10-25 08:39:00
1:55 AM,35.6,35.6,100,30.24,10.0,North,2.3,-,N/A,,Mostly Cloudy,10,2012-10-25 08:55:00
2:46 AM,35.6,35.6,100,30.25,10.0,SW,3.5,-,N/A,,Overcast,220,2012-10-25 09:46:00
2:55 AM,35.6,35.6,100,30.25,10.0,SW,4.6,-,N/A,,Overcast,220,2012-10-25 09:55:00
3:02 AM,37.4,35.6,93,30.25,10.0,WSW,4.6,-,N/A,,Overcast,240,2012-10-25 10:02:00
3:12 AM,35.6,35.6,100,30.25,10.0,West,1.2,-,N/A,,Overcast,260,2012-10-25 10:12:00
3:18 AM,35.6,35.6,100,30.25,10.0,WSW,1.2,-,N/A,,Overcast,250,2012-10-25 10:18:00
3:35 AM,35.6,35.6,100,30.26,10.0,SSW,2.3,-,N/A,,Overcast,210,2012-10-25 10:35:00
3:45 AM,37.4,35.6,93,30.26,10.0,South,2.3,-,N/A,,Overcast,190,2012-10-25 10:45:00
3:55 AM,37.4,35.6,93,30.26,10.0,Calm,Calm,-,N/A,,Overcast,0,2012-10-25 10:55:00
4:12 AM,37.4,35.6,93,30.26,10.0,Calm,Calm,-,N/A,,Overcast,0,2012-10-25 11:12:00
4:14 AM,37.4,35.6,93,30.26,10.0,Calm,Calm,-,N/A,,Overcast,0,2012-10-25 11:14:00
4:25 AM,37.4,35.6,93,30.27,10.0,Calm,Calm,-,N/A,,Overcast,0,2012-10-25 11:25:00
4:36 AM,37.4,35.6,93,30.27,10.0,South,4.6,-,N/A,,Overcast,190,2012-10-25 11:36:00
4:55 AM,37.4,35.6,93,30.28,10.0,South,3.5,-,N/A,,Overcast,190,2012-10-25 11:55:00
5:04 AM,35.6,35.6,100,30.29,10.0,SSW,5.8,-,N/A,,Overcast,200,2012-10-25 12:04:00
5:17 AM,35.6,35.6,100,30.29,10.0,South,5.8,-,N/A,,Overcast,180,2012-10-25 12:17:00
5:24 AM,35.6,33.8,93,30.30,10.0,South,8.1,-,N/A,,Overcast,190,2012-10-25 12:24:00
5:55 AM,35.6,33.8,93,30.31,10.0,SW,8.1,-,N/A,,Overcast,220,2012-10-25 12:55:00
6:11 AM,35.6,33.8,93,30.32,10.0,SW,8.1,-,N/A,,Overcast,220,2012-10-25 13:11:00
6:26 AM,33.8,33.8,100,30.32,1.0,SW,5.8,-,N/A,,Overcast,220,2012-10-25 13:26:00
6:37 AM,35.6,33.8,93,30.32,3.0,SW,5.8,-,N/A,,Overcast,220,2012-10-25 13:37:00
6:55 AM,35.6,33.8,93,30.33,4.0,WSW,6.9,-,N/A,,Overcast,240,2012-10-25 13:55:00
7:00 AM,35.6,33.8,93,30.34,3.0,SW,6.9,-,N/A,,Light Drizzle,230,2012-10-25 14:00:00
7:55 AM,33.8,33.3,98,30.36,4.0,SW,3.5,-,0.00,,Overcast,230,2012-10-25 14:55:00
8:14 AM,33.8,33.8,100,30.36,5.0,Variable,2.3,-,N/A,,Overcast,0,2012-10-25 15:14:00
8:41 AM,35.6,33.8,93,30.38,6.0,West,6.9,-,N/A,,Overcast,260,2012-10-25 15:41:00
8:55 AM,34.9,33.8,96,30.38,5.0,West,8.1,-,N/A,,Overcast,260,2012-10-25 15:55:00
9:48 AM,35.6,33.8,93,30.40,6.0,West,6.9,-,N/A,,Overcast,270,2012-10-25 16:48:00
9:55 AM,36.1,34.7,94,30.40,6.0,West,8.1,-,N/A,,Overcast,260,2012-10-25 16:55:00
10:55 AM,38.3,35.8,91,30.42,10.0,WSW,6.9,-,N/A,,Overcast,240,2012-10-25 17:55:00
11:17 AM,39.2,35.6,87,30.43,10.0,West,8.1,-,N/A,,Overcast,270,2012-10-25 18:17:00
11:40 AM,41.0,35.6,81,30.43,10.0,West,6.9,-,N/A,,Mostly Cloudy,280,2012-10-25 18:40:00
11:55 AM,39.7,34.2,80,30.43,10.0,SW,4.6,-,N/A,,Mostly Cloudy,230,2012-10-25 18:55:00
12:55 PM,40.8,34.7,79,30.44,10.0,WSW,8.1,-,N/A,,Mostly Cloudy,240,2012-10-25 19:55:00
1:55 PM,41.4,34.0,75,30.45,10.0,SW,4.6,-,N/A,,Overcast,220,2012-10-25 20:55:00
2:55 PM,41.2,34.7,78,30.45,10.0,WSW,9.2,-,N/A,,Overcast,240,2012-10-25 21:55:00
3:32 PM,41.0,41.0,100,30.36,10.0,WSW,9.2,-,N/A,,Overcast,250,2012-10-25 22:32:00
3:35 PM,41.0,41.0,100,30.36,10.0,WSW,9.2,-,N/A,,Overcast,240,2012-10-25 22:35:00
3:46 PM,41.0,41.0,100,30.36,10.0,WSW,8.1,-,N/A,,Overcast,240,2012-10-25 22:46:00
3:55 PM,41.2,41.2,100,30.36,10.0,WSW,9.2,-,N/A,,Overcast,250,2012-10-25 22:55:00
4:20 PM,41.0,41.0,100,30.37,10.0,WSW,8.1,-,N/A,,Overcast,240,2012-10-25 23:20:00
4:28 PM,41.0,41.0,100,30.37,10.0,SW,6.9,-,N/A,,Overcast,230,2012-10-25 23:28:00
4:55 PM,40.1,39.9,99,30.37,10.0,SW,8.1,-,N/A,,Overcast,230,2012-10-25 23:55:00
5:06 PM,39.2,39.2,100,30.38,10.0,SW,9.2,-,N/A,,Overcast,230,2012-10-26 00:06:00
5:38 PM,39.2,39.2,100,30.39,10.0,SW,8.1,-,N/A,,Overcast,230,2012-10-26 00:38:00
5:44 PM,39.2,39.2,100,30.39,10.0,SW,8.1,-,N/A,,Overcast,220,2012-10-26 00:44:00
5:47 PM,39.2,39.2,100,30.39,10.0,SW,8.1,-,N/A,,Overcast,220,2012-10-26 00:47:00
5:55 PM,38.8,38.8,100,30.39,10.0,SW,10.4,-,N/A,,Overcast,220,2012-10-26 00:55:00
6:48 PM,35.6,35.6,100,30.40,10.0,WSW,5.8,-,N/A,,Scattered Clouds,240,2012-10-26 01:48:00
6:55 PM,36.5,36.5,100,30.40,10.0,SW,5.8,-,N/A,,Mostly Cloudy,220,2012-10-26 01:55:00
7:06 PM,35.6,35.6,100,30.40,10.0,SSW,5.8,-,N/A,,Mostly Cloudy,210,2012-10-26 02:06:00
7:55 PM,34.3,34.3,100,30.39,10.0,South,5.8,-,N/A,,Scattered Clouds,170,2012-10-26 02:55:00
8:55 PM,33.4,33.4,100,30.38,10.0,South,3.5,-,N/A,,Clear,170,2012-10-26 03:55:00
9:55 PM,33.3,33.3,100,30.39,10.0,South,5.8,-,N/A,,Clear,170,2012-10-26 04:55:00
10:55 PM,33.1,33.1,100,30.40,10.0,South,3.5,-,N/A,,Clear,180,2012-10-26 05:55:00
11:55 PM,32.2,32.2,100,30.39,10.0,Calm,Calm,-,N/A,,Clear,0,2012-10-26 06:55:00